When you browse on this site, cookies collect data to enhance your experience and personalize the content and advertising you see.
Visit our Privacy Policy to learn more. By continuing to use the site, you agree to this use of cookies and data.
  • Em Portugal
  • Lista de países
  • Para 7 dias
  • Temperatura da água
  • Mapa do tempo
  • Widgets de tempo
  • user-avatar
    Iniciar Sessão

    Previsão horária em Jakuszowice

    Hoje, 15 Outubro, Terça-feira

    Tempo Temperatura Precipitação Vento Pressão Humidade
    00:00 +14°C° 0 mm 2 m/s 746 mmHg 82%
    01:00 +14°C° 0 mm 2 m/s 746 mmHg 83%
    02:00 +13°C° 0 mm 2 m/s 745 mmHg 83%
    03:00 +13°C° 0 mm 2 m/s 745 mmHg 83%
    04:00 +13°C° 0 mm 2 m/s 744 mmHg 83%
    05:00 +13°C° 0 mm 2 m/s 744 mmHg 81%
    06:00 +13°C° 0 mm 2 m/s 744 mmHg 80%
    07:00 +14°C° 0 mm 2 m/s 744 mmHg 78%
    08:00 +16°C° 0 mm 2 m/s 744 mmHg 72%
    09:00 +17°C° 0 mm 3 m/s 744 mmHg 65%
    10:00 +19°C° 0 mm 3 m/s 743 mmHg 58%
    11:00 +21°C° 0 mm 3 m/s 743 mmHg 54%
    12:00 +24°C° 0 mm 3 m/s 743 mmHg 50%
    13:00 +25°C° 0 mm 3 m/s 743 mmHg 46%
    14:00 +24°C° 0 mm 3 m/s 742 mmHg 51%
    15:00 +22°C° 0 mm 3 m/s 742 mmHg 55%
    16:00 +21°C° 0 mm 3 m/s 741 mmHg 60%
    17:00 +20°C° 0 mm 3 m/s 741 mmHg 63%
    18:00 +18°C° 0 mm 3 m/s 741 mmHg 66%
    19:00 +17°C° 0 mm 4 m/s 741 mmHg 70%
    20:00 +17°C° 0 mm 4 m/s 741 mmHg 71%
    21:00 +16°C° 0 mm 3 m/s 741 mmHg 73%
    22:00 +16°C° 0 mm 3 m/s 741 mmHg 74%
    23:00 +14°C° 0 mm 3 m/s 741 mmHg 75%

    Amanhã, 16 Outubro, Quarta-feira

    Tempo Temperatura Precipitação Vento Pressão Humidade
    00:00 +14°C° 0 mm 3 m/s 741 mmHg 76%
    01:00 +15°C° 0 mm 2 m/s 741 mmHg 76%
    02:00 +15°C° 0 mm 2 m/s 741 mmHg 76%
    03:00 +14°C° 0 mm 3 m/s 741 mmHg 76%
    04:00 +13°C° 0 mm 3 m/s 741 mmHg 76%
    05:00 +14°C° 0 mm 3 m/s 742 mmHg 77%
    06:00 +14°C° 0 mm 3 m/s 742 mmHg 77%
    07:00 +14°C° 0 mm 3 m/s 742 mmHg 78%
    08:00 +15°C° 0 mm 4 m/s 743 mmHg 74%
    09:00 +16°C° 0 mm 5 m/s 744 mmHg 71%
    10:00 +17°C° 0 mm 6 m/s 744 mmHg 68%
    11:00 +17°C° 0 mm 6 m/s 744 mmHg 64%
    12:00 +17°C° 0 mm 6 m/s 744 mmHg 61%
    13:00 +19°C° 0 mm 6 m/s 744 mmHg 58%
    14:00 +17°C° 0 mm 5 m/s 744 mmHg 60%
    15:00 +17°C° 0 mm 4 m/s 744 mmHg 62%
    16:00 +15°C° 0 mm 4 m/s 744 mmHg 63%
    17:00 +14°C° 0 mm 3 m/s 745 mmHg 66%
    18:00 +13°C° 0 mm 3 m/s 745 mmHg 68%
    19:00 +13°C° 0 mm 2 m/s 745 mmHg 70%
    20:00 +12°C° 0 mm 2 m/s 745 mmHg 72%
    21:00 +12°C° 0 mm 2 m/s 746 mmHg 74%
    22:00 +12°C° 0 mm 2 m/s 746 mmHg 77%
    23:00 +10°C° 0 mm 2 m/s 746 mmHg 78%

    Depois de amanhã, 17 Outubro, Quinta-feira

    Tempo Temperatura Precipitação Vento Pressão Humidade
    00:00 +10°C° 0 mm 2 m/s 746 mmHg 79%
    01:00 +10°C° 0 mm 2 m/s 746 mmHg 80%
    02:00 +10°C° 0 mm 2 m/s 746 mmHg 82%
    03:00 +9°C° 0 mm 2 m/s 746 mmHg 83%
    04:00 +9°C° 0 mm 2 m/s 746 mmHg 84%
    05:00 +9°C° 0 mm 2 m/s 746 mmHg 83%
    06:00 +10°C° 0 mm 2 m/s 746 mmHg 83%
    07:00 +11°C° 0 mm 1 m/s 746 mmHg 82%
    08:00 +13°C° 0 mm 2 m/s 746 mmHg 72%
    09:00 +15°C° 0 mm 2 m/s 747 mmHg 62%
    10:00 +17°C° 0 mm 2 m/s 747 mmHg 53%
    11:00 +18°C° 0 mm 2 m/s 747 mmHg 49%
    12:00 +19°C° 0 mm 2 m/s 747 mmHg 46%
    13:00 +20°C° 0 mm 2 m/s 747 mmHg 43%
    14:00 +20°C° 0 mm 1 m/s 747 mmHg 47%
    15:00 +19°C° 0 mm 1 m/s 747 mmHg 51%
    16:00 +16°C° 0 mm 0 m/s 747 mmHg 55%
    17:00 +16°C° 0 mm 1 m/s 747 mmHg 57%
    18:00 +15°C° 0 mm 1 m/s 747 mmHg 58%
    19:00 +14°C° 0 mm 1 m/s 747 mmHg 60%
    20:00 +14°C° 0 mm 1 m/s 747 mmHg 61%
    21:00 +14°C° 0 mm 1 m/s 747 mmHg 61%
    22:00 +14°C° 0 mm 1 m/s 747 mmHg 61%
    23:00 +14°C° 0 mm 1 m/s 747 mmHg 62%

    18 Outubro, Sexta-feira

    Tempo Temperatura Precipitação Vento Pressão Humidade
    00:00 +14°C° 0 mm 1 m/s 747 mmHg 63%
    01:00 +14°C° 0 mm 1 m/s 747 mmHg 63%
    02:00 +14°C° 0 mm 1 m/s 747 mmHg 65%
    03:00 +14°C° 0 mm 1 m/s 747 mmHg 67%
    04:00 +13°C° 0 mm 1 m/s 747 mmHg 68%
    05:00 +14°C° 0 mm 1 m/s 747 mmHg 69%
    06:00 +14°C° 0 mm 1 m/s 747 mmHg 69%
    07:00 +14°C° 0 mm 1 m/s 747 mmHg 70%
    08:00 +15°C° 0 mm 1 m/s 747 mmHg 68%
    09:00 +16°C° 0 mm 1 m/s 747 mmHg 66%
    10:00 +16°C° 0 mm 1 m/s 747 mmHg 64%
    11:00 +18°C° 0 mm 1 m/s 747 mmHg 62%
    12:00 +19°C° 0 mm 1 m/s 747 mmHg 60%
    13:00 +20°C° 0 mm 1 m/s 747 mmHg 57%
    14:00 +19°C° 0 mm 1 m/s 747 mmHg 61%
    15:00 +19°C° 0 mm 1 m/s 747 mmHg 64%
    16:00 +18°C° 0 mm 1 m/s 746 mmHg 68%
    17:00 +18°C° 0 mm 1 m/s 746 mmHg 70%
    18:00 +16°C° 0 mm 1 m/s 747 mmHg 73%
    19:00 +15°C° 0 mm 1 m/s 747 mmHg 75%
    20:00 +15°C° 0 mm 1 m/s 747 mmHg 76%
    21:00 +15°C° 0 mm 1 m/s 747 mmHg 77%
    22:00 +15°C° 0 mm 1 m/s 747 mmHg 79%
    23:00 +14°C° 0 mm 1 m/s 747 mmHg 81%

    19 Outubro, Sábado

    Tempo Temperatura Precipitação Vento Pressão Humidade
    00:00 +13°C° 0 mm 0 m/s 747 mmHg 83%
    01:00 +12°C° 0 mm 0 m/s 747 mmHg 85%
    02:00 +12°C° 0 mm 0 m/s 747 mmHg 86%
    03:00 +12°C° 0 mm 0 m/s 746 mmHg 87%
    04:00 +12°C° 0 mm 1 m/s 746 mmHg 88%
    05:00 +13°C° 0 mm 1 m/s 746 mmHg 87%
    06:00 +13°C° 0 mm 1 m/s 746 mmHg 86%
    07:00 +13°C° 0 mm 1 m/s 746 mmHg 85%
    08:00 +15°C° 0 mm 1 m/s 746 mmHg 79%
    09:00 +16°C° 0 mm 2 m/s 746 mmHg 72%
    10:00 +18°C° 0 mm 2 m/s 746 mmHg 66%
    11:00 +19°C° 0 mm 2 m/s 746 mmHg 61%
    12:00 +20°C° 0 mm 2 m/s 746 mmHg 56%
    13:00 +23°C° 0 mm 2 m/s 746 mmHg 52%
    14:00 +21°C° 0 mm 2 m/s 746 mmHg 55%
    15:00 +21°C° 0 mm 1 m/s 746 mmHg 59%
    16:00 +20°C° 0 mm 1 m/s 745 mmHg 62%
    17:00 +19°C° 0 mm 1 m/s 745 mmHg 66%
    18:00 +17°C° 0 mm 2 m/s 745 mmHg 70%
    19:00 +16°C° 0 mm 2 m/s 746 mmHg 74%
    20:00 +16°C° 0 mm 2 m/s 745 mmHg 76%
    21:00 +15°C° 0 mm 2 m/s 745 mmHg 78%
    22:00 +15°C° 0 mm 2 m/s 745 mmHg 79%
    23:00 +14°C° 0 mm 2 m/s 745 mmHg 80%

    20 Outubro, Domingo

    Tempo Temperatura Precipitação Vento Pressão Humidade
    00:00 +14°C° 0 mm 2 m/s 745 mmHg 80%
    01:00 +14°C° 0 mm 2 m/s 744 mmHg 81%
    02:00 +13°C° 0 mm 3 m/s 744 mmHg 79%
    03:00 +13°C° 0 mm 3 m/s 744 mmHg 77%
    04:00 +13°C° 0 mm 3 m/s 743 mmHg 75%
    05:00 +13°C° 0 mm 3 m/s 743 mmHg 74%
    06:00 +13°C° 0 mm 3 m/s 743 mmHg 74%
    07:00 +13°C° 0 mm 4 m/s 743 mmHg 73%
    08:00 +15°C° 0 mm 4 m/s 743 mmHg 66%
    09:00 +19°C° 0 mm 5 m/s 743 mmHg 58%
    10:00 +21°C° 0 mm 5 m/s 743 mmHg 50%
    11:00 +22°C° 0 mm 5 m/s 743 mmHg 48%
    12:00 +22°C° 0 mm 5 m/s 743 mmHg 46%
    13:00 +23°C° 0 mm 5 m/s 743 mmHg 43%
    14:00 +22°C° 0 mm 5 m/s 743 mmHg 47%
    15:00 +21°C° 0 mm 4 m/s 743 mmHg 52%
    16:00 +20°C° 0 mm 4 m/s 743 mmHg 56%
    17:00 +19°C° 0 mm 4 m/s 743 mmHg 59%
    18:00 +18°C° 0 mm 3 m/s 743 mmHg 62%
    19:00 +17°C° 0 mm 3 m/s 744 mmHg 65%
    20:00 +16°C° 0 mm 2 m/s 744 mmHg 67%
    21:00 +15°C° 0 mm 2 m/s 744 mmHg 69%
    22:00 +15°C° 0 mm 2 m/s 744 mmHg 71%
    23:00 +15°C° 0 mm 2 m/s 744 mmHg 72%
    Mostrar mais